FENGYUN 1C DEB, 33625

Orbit data source: Space-Track

FENGYUN 1C DEB, 33625 is space debris in SSO originally from a launch on Mon, 10 May 1999 UTC launched from the Taiyaun Space Center, China (TSC). Fengyun 1C debris stems from the Chinese weather satellite Fengyun-1C, which was intentionally destroyed by a Chinese anti-satellite missile in 2007. This event dramatically increased the amount of space debris, with thousands of trackable fragments posing hazards to satellites and human spaceflight. The Fengyun 1C debris cloud has become a focal point in discussions about space sustainability and the need for international regulations to prevent the creation of new debris.

Loading next visibility...
Identifier
33625, 1999-025DDJ
Orbit
SSO
Country
Flag of CNCN / PRC
Related business
Manufacturer
Unknown
Mission
Spacecraft
Bus & Motor
Unknown
Mass
Unknown
Launch date (UTC)
1999-05-10 (27 years ago)
Launch vehicle
Unknown
Launch site
Taiyaun Space Center, China (TSC)
Object type
Payload
Rocket body
Debris
Shape & HBR
Unknown shape, 0.1 m
Radar Cross Section
Small (<0.1 m²)

Expand to show TLE details & history
Last TLE update: 18 hours ago

TLE from 18 hours ago
0 FENGYUN 1C DEB
1 33625U 99025DDJ 26207.80053070  .00008168  00000-0  11133-2 0  9998
2 33625  98.6382 333.7427 0217178 155.2006 205.9824 14.63925726646956
Epoch: 2026-07-26T19:12Z
TLE epoch observation values (Epoch: 2026-07-26T19:12:45.852Z)
Latitude
-0.00001°
Longitude
101.05839°
Altitude
821.96 km
Speed
7.369 km/s
True Right ascension
22h 14m 58s
True Declination
0° 00' 00"
Sunlit
Object was in full shadow at epoch
Visualization orbit readout
Latitude
Unknown
Longitude
Unknown
Altitude
Unknown
Speed
Unknown
Apparent Right ascension
Unknown
Apparent Declination
Unknown
Sunlit
N/A
Visualization observer readout
Local Sidereal Time
02:22:05
Azimuth
Unknown
Elevation
Unknown
Doppler factor
Unknown
Orbital elements
Apogee altitude
830.857 km
Perigee altitude
524.386 km
Semi-major axis
7,055.758 km
Eccentricity
0.02172
Inclination
98.6382°
RAAN
333.7427°
Arg. of periapsis
155.2006°
True anomaly
204.91818°
Mean anomaly
205.9824°
Eccentric anomaly
205.44772°
Mean motion
3.66208 °/min
Orbital period
98.3 mins
BSTAR
0.0011133
Loading maneuver chart data...
Computing Atmospheric mass density...

Documentation

Showing up to 5 results
|